EHI
0 0 0 0 0 0 0 0 0 0 0 1 2 5 9 11 13 12 11 11 11 11 14 15 17 20 23 26 26 24 20 17 15 12 11 9 8 9 9 10 11 12 11 9
0 0 0 0 0 0 0 0 0 0 0 0 1 3 6 10 12 12 12 13 13 14 16 17 17 20 24 29 29 25 20 18 16 13 12 11 9 9 10 11 13 12 11 10
0 0 0 0 0 0 0 0 0 0 0 0 0 1 4 7 10 12 12 13 14 16 19 20 19 19 23 28 29 27 24 23 21 17 14 13 12 10 10 12 13 11 9 8
0 0 0 0 0 0 0 0 0 0 0 0 0 1 2 5 8 11 11 11 12 14 18 21 20 19 19 21 24 26 27 27 26 23 18 16 13 11 10 12 12 10 9 8
0 0 0 0 0 0 0 0 0 0 0 0 0 0 1 3 6 8 9 9 10 13 17 21 21 19 18 17 19 21 22 23 25 25 22 19 16 13 12 11 11 11 11 11
0 0 0 0 0 0 0 0 0 0 0 0 0 0 1 2 4 6 7 7 9 13 17 19 19 19 19 18 17 16 17 18 20 21 21 21 19 16 13 10 10 10 11 11
0 0 0 0 0 0 0 0 0 0 0 0 0 0 1 2 2 3 4 5 7 12 15 16 17 20 22 20 17 15 15 18 18 17 17 18 18 15 12 10 9 9 9 10
0 0 0 0 0 0 0 0 0 0 0 0 0 1 2 3 2 1 2 4 6 10 13 13 15 18 20 20 18 16 17 19 17 15 13 13 13 12 10 9 9 9 9 9
0 0 0 0 0 0 0 0 0 0 0 0 0 2 4 4 3 2 3 4 5 8 11 12 13 15 17 18 17 17 19 19 16 12 10 9 10 10 10 10 11 11 11 11
0 0 0 0 0 0 0 0 0 0 0 0 0 1 3 4 4 4 3 2 3 6 10 13 15 14 15 17 18 19 21 20 16 12 10 8 8 10 11 11 12 13 12 12
0 0 0 0 0 0 0 0 0 0 0 0 0 0 2 4 5 5 4 3 3 5 10 14 17 17 16 17 20 22 21 19 16 15 13 10 8 10 11 10 10 11 11 10
0 0 0 0 0 0 0 0 0 0 0 0 0 0 1 4 6 7 7 6 6 6 9 13 17 18 18 18 21 22 20 17 16 16 14 11 9 10 11 9 8 8 8 8
0 0 0 0 0 0 0 0 0 0 0 0 0 0 1 5 9 9 8 9 9 9 9 12 15 17 16 17 20 20 17 14 13 13 12 10 9 11 11 9 7 6 7 8
0 0 0 0 0 0 0 0 0 0 0 0 0 0 2 6 8 7 6 8 11 11 10 10 12 12 12 15 18 17 14 12 11 11 11 10 10 10 10 9 7 6 6 7
0 0 0 0 0 0 0 0 0 0 0 0 0 0 2 5 7 5 4 7 9 9 8 9 9 8 9 12 15 15 13 12 11 11 11 11 10 8 8 8 8 6 4 4
0 0 0 0 0 0 0 0 0 0 0 0 0 1 3 6 7 5 5 7 9 9 9 10 11 9 8 10 12 12 13 13 12 11 11 10 8 6 5 6 7 6 3 1
0 0 0 0 0 0 0 0 0 1 1 1 1 1 3 5 6 6 7 8 9 9 10 12 14 13 11 9 9 10 12 12 12 11 10 9 7 6 4 4 5 5 2 1
0 0 0 0 0 0 0 0 1 2 2 2 1 1 1 2 3 6 8 9 9 9 11 13 15 16 13 9 8 10 11 12 12 11 9 8 6 5 5 5 4 4 3 2
0 0 0 0 0 0 0 1 2 3 3 1 1 0 0 1 3 6 9 9 9 10 12 15 16 16 13 9 8 10 11 11 11 9 7 6 5 4 4 4 4 3 2 2
0 0 0 0 0 0 1 2 3 3 2 1 0 0 0 1 3 7 9 9 10 11 13 15 15 13 10 9 9 10 11 10 8 6 4 3 3 3 3 3 2 2 2 2
0 0 0 0 0 1 2 2 3 3 2 1 0 0 0 1 3 5 6 8 10 11 12 11 10 9 7 7 8 8 8 7 5 3 2 2 2 3 3 2 2 2 3 3
0 0 0 0 0 1 1 1 2 1 1 0 0 0 0 1 2 3 4 6 7 9 8 6 5 5 5 5 5 5 5 5 4 2 2 3 3 3 3 3 4 4 4 4
0 0 1 0 0 0 0 0 0 0 0 0 0 0 0 2 3 4 4 4 4 5 4 2 2 2 3 3 3 3 3 4 4 3 3 5 6 6 5 5 6 5 3 2
0 0 0 0 0 0 0 0 0 0 0 0 0 0 0 1 3 4 4 3 2 2 1 1 1 2 3 3 3 3 3 4 6 5 5 6 8 9 8 7 6 5 2 1
0 0 0 0 0 0 0 0 0 1 1 1 1 1 1 1 3 4 4 3 1 0 0 0 1 2 3 3 3 3 4 5 8 8 6 6 8 10 9 8 7 5 3 2
0 0 0 0 0 0 0 0 0 1 2 2 2 2 2 2 3 4 4 3 1 0 0 0 1 2 3 3 3 3 4 5 9 9 7 5 7 9 9 8 6 4 4 3
Wind_Speed
8 10 8 6 7 6 5 7 6 3 2 5 5 5 3 3 5 5 6 7 7 7 6 6 6 5 5 5 5 5 4 4 3 2 2 2 2 2 2 2 2 2 2 2
9 10 6 5 5 7 8 8 6 3 3 4 5 5 3 3 5 5 5 6 7 7 7 6 6 5 5 5 5 5 4 4 4 2 1 1 1 1 1 1 2 2 2 2
10 3 5 7 8 8 9 8 6 4 4 7 6 7 6 5 5 4 5 5 6 6 7 7 6 5 5 5 5 4 4 4 3 3 2 1 1 2 2 2 2 2 2 2
8 4 6 9 9 9 8 5 7 6 8 6 7 7 6 6 6 6 6 6 6 7 6 6 6 5 5 6 5 5 5 4 3 3 3 3 2 2 1 1 1 2 2 2
6 6 7 9 7 8 5 4 7 8 9 8 8 9 4 6 6 5 5 5 6 6 6 6 5 5 5 5 4 4 4 4 3 2 2 3 3 2 2 2 1 1 2 2
5 5 5 5 5 6 5 6 7 9 9 10 7 9 5 4 4 4 3 4 5 5 6 5 5 5 5 5 4 4 4 3 3 3 2 2 2 2 2 2 2 2 2 1
9 8 6 5 7 7 9 8 7 8 9 7 5 7 2 1 1 2 2 4 5 5 5 6 6 6 5 5 4 4 4 3 3 3 2 2 2 3 3 3 2 2 2 2
8 8 7 6 8 7 9 10 8 7 7 4 6 6 2 3 2 2 2 4 4 5 5 5 6 6 5 6 5 4 4 3 3 3 2 2 2 2 2 2 2 2 2 1
6 4 4 4 5 8 8 9 8 9 9 8 5 4 4 4 3 3 3 4 4 4 5 4 5 5 5 5 5 4 4 3 3 2 2 2 2 2 1 1 2 1 1 1
5 5 4 5 6 5 7 6 6 9 7 9 6 7 3 5 4 3 3 4 4 4 4 4 4 4 4 5 5 4 3 3 3 3 2 2 2 1 1 1 1 1 1 1
6 7 5 7 7 6 7 8 7 7 7 9 7 2 2 2 3 3 3 3 3 4 4 4 4 4 4 4 4 4 4 3 3 2 2 2 2 1 1 1 1 1 2 2
5 7 6 6 2 4 7 7 7 7 7 8 8 0 4 3 4 3 3 3 3 3 3 4 4 4 4 4 4 4 3 3 3 2 2 2 1 1 2 2 2 2 2 3
4 6 7 8 8 7 7 7 8 8 7 8 9 1 5 4 3 3 2 3 3 3 3 3 3 3 3 3 3 3 3 3 3 2 2 2 2 2 2 2 2 3 3 3
5 7 9 8 5 4 6 7 8 10 9 8 8 5 2 2 2 2 2 3 3 3 3 2 2 2 3 3 2 3 3 3 2 2 2 2 2 3 3 2 3 3 3 3
5 7 8 8 7 7 8 8 8 10 10 10 8 7 2 2 2 2 2 3 3 3 2 2 1 1 2 2 2 2 2 2 2 2 2 2 3 3 3 3 3 3 4 3
4 6 7 9 8 9 9 9 9 9 9 9 8 5 1 1 1 2 2 3 3 2 1 1 1 1 2 2 2 2 2 2 3 3 3 2 3 3 3 3 4 4 4 4
4 5 8 8 7 10 11 8 9 8 6 7 8 3 1 2 3 3 3 3 2 2 1 1 1 1 2 2 2 2 2 2 3 3 3 3 3 3 4 4 4 4 4 4
6 7 6 7 7 11 2 0 4 6 6 5 4 2 2 1 2 2 3 3 2 2 1 1 1 1 1 2 2 2 3 3 3 3 3 3 3 3 4 4 4 4 4 4
6 7 7 7 9 8 4 3 4 6 5 3 3 1 1 1 3 4 2 1 2 1 1 1 1 1 1 2 2 3 3 3 3 2 2 3 3 3 4 4 4 4 4 4
6 7 8 8 9 9 2 2 2 5 6 0 1 2 2 4 5 2 2 1 1 1 1 1 1 1 1 1 2 3 3 2 2 2 3 3 3 3 4 3 3 3 3 4
7 7 9 10 9 6 2 2 3 7 0 3 0 1 2 2 3 3 2 2 2 2 2 1 1 1 1 2 2 3 3 2 2 2 3 3 3 4 4 3 3 3 3 3
6 6 7 7 9 4 4 3 2 3 4 1 0 0 0 1 2 2 2 2 2 2 2 2 2 1 1 2 2 2 2 2 2 3 3 3 3 3 3 3 3 3 3 3
4 4 4 3 2 4 1 1 3 2 1 1 0 1 1 2 2 2 2 2 2 2 2 2 1 1 1 2 2 3 3 2 3 3 3 3 3 3 3 3 3 3 3 3
3 3 4 4 2 0 1 0 0 1 1 1 0 1 2 2 2 2 2 2 2 2 1 1 2 2 1 2 2 3 3 2 3 3 3 3 3 3 2 3 3 3 3 3
4 3 5 6 4 2 2 1 0 0 0 0 1 1 1 1 1 2 1 2 1 2 1 1 2 2 2 2 2 2 2 2 3 3 3 3 3 3 2 2 2 3 2 2
5 5 6 4 3 4 2 1 1 1 1 1 1 1 1 1 1 1 1 1 1 1 2 2 2 2 1 1 2 2 2 3 3 3 3 3 3 2 3 3 2 0 1 1
Wind_Direction
201 219 215 211 236 276 257 250 242 224 168 236 233 241 231 194 204 207 194 187 184 179 173 170 173 168 160 153 152 161 160 157 172 181 206 195 193 194 190 182 160 192 193 178
207 217 216 219 225 242 242 243 238 203 177 248 246 252 239 217 214 219 209 197 191 181 174 173 173 169 167 158 157 156 156 163 184 178 213 232 239 224 203 165 141 188 199 211
228 201 192 217 219 230 238 249 254 252 225 218 240 239 216 194 197 205 213 206 193 189 183 178 171 168 159 151 156 153 151 163 184 180 187 184 196 216 191 189 179 194 193 205
231 208 207 220 225 236 236 242 258 247 247 234 237 257 206 196 196 202 206 201 195 190 186 182 174 169 161 155 155 151 149 150 160 185 196 196 209 215 218 224 177 185 194 202
208 204 215 226 228 241 262 254 248 247 252 256 233 259 207 190 211 204 203 199 193 186 181 179 175 173 161 151 149 144 145 144 150 183 192 210 221 219 210 205 166 202 181 206
224 212 234 244 237 234 236 227 230 236 242 243 236 253 231 192 212 192 177 176 176 172 168 166 166 167 157 152 148 146 149 149 158 173 174 203 213 214 222 218 204 210 201 211
209 199 203 224 221 204 228 236 232 225 226 236 207 241 241 107 144 182 174 160 161 163 162 164 168 163 156 152 154 156 155 158 172 174 178 188 203 206 210 226 224 248 236 216
223 206 195 209 233 234 225 243 257 267 260 240 202 230 143 111 117 135 151 152 154 164 166 169 169 165 163 161 163 160 157 163 171 175 179 186 205 219 204 218 239 226 246 266
243 219 164 201 230 244 227 237 267 272 271 266 233 197 161 156 153 143 145 154 162 165 164 166 165 167 167 164 161 161 161 166 176 179 179 179 203 237 235 219 230 231 246 249
264 248 199 187 206 212 259 250 244 253 261 260 241 228 198 172 184 175 173 171 165 160 161 165 164 166 170 167 162 166 172 173 176 182 198 177 186 210 227 249 259 246 249 265
251 244 210 204 223 221 208 218 242 257 268 272 264 237 59 156 171 174 176 156 149 157 160 159 154 153 162 160 157 164 165 168 173 179 191 183 183 193 211 225 248 257 252 243
234 258 243 228 222 270 242 238 234 249 255 263 275 273 79 127 144 154 150 135 132 146 153 151 148 148 148 152 158 158 163 165 166 170 183 184 191 196 215 223 246 254 260 256
214 238 238 216 195 201 225 234 244 253 259 258 264 230 117 138 144 144 141 138 139 141 141 143 145 146 148 151 158 162 168 163 165 175 189 195 215 218 229 237 252 253 249 254
252 243 256 264 274 239 231 233 239 246 251 256 262 271 188 186 179 146 147 154 150 149 144 139 140 151 157 158 162 170 169 167 175 188 198 206 224 228 233 240 245 249 246 244
245 243 251 263 268 258 252 249 239 245 262 271 275 275 273 225 217 169 158 160 161 161 155 151 159 158 174 169 170 177 172 178 194 208 211 215 228 231 234 240 244 246 246 243
248 253 250 249 244 248 250 248 244 245 256 263 270 273 350 168 173 167 167 168 173 172 169 168 178 185 192 188 188 182 179 194 205 219 223 222 228 235 239 244 245 245 246 246
231 240 245 245 241 248 242 241 242 239 247 261 266 283 181 198 200 202 201 199 203 195 185 203 199 196 203 209 210 207 200 203 209 220 226 224 233 239 244 246 244 244 244 242
250 253 251 251 240 243 238 330 263 253 250 260 273 271 224 228 216 197 201 200 207 198 189 207 215 193 199 199 208 212 209 203 213 223 233 235 239 241 245 246 246 247 246 244
236 245 253 251 249 248 210 211 240 248 247 267 259 238 212 169 192 175 170 214 211 191 162 166 224 195 191 199 203 207 215 214 220 230 244 248 244 244 244 247 246 244 243 245
202 230 248 246 253 253 232 141 254 250 232 115 263 210 192 217 235 138 119 159 140 117 117 137 171 180 184 195 196 202 218 226 241 245 250 255 256 251 246 247 247 243 240 242
204 218 237 247 249 252 68 117 206 235 321 62 300 221 219 250 351 65 121 126 111 100 106 131 143 156 208 220 216 219 233 244 258 257 250 248 253 255 250 246 246 243 242 245
245 241 234 243 244 239 85 169 234 13 46 62 37 224 232 77 89 113 128 133 132 119 127 148 157 172 203 214 219 232 248 266 271 266 256 251 249 250 243 241 242 239 240 237
251 288 293 281 313 42 78 51 40 34 38 17 45 125 160 175 154 135 134 144 156 160 163 177 185 194 215 221 230 241 243 255 257 260 257 255 252 245 243 239 237 234 233 248
217 243 254 256 254 254 205 178 59 347 337 355 96 154 178 185 181 160 154 160 170 171 190 208 217 220 224 239 250 245 243 250 253 251 250 242 237 236 236 251 250 254 252 251
273 235 243 250 269 261 222 228 236 6 282 194 158 155 178 182 169 157 168 175 181 184 198 220 238 247 256 242 244 243 238 236 245 251 254 244 235 232 232 242 274 264 270 288
250 252 259 276 288 279 297 296 271 248 243 195 142 128 118 136 149 147 170 179 189 203 208 218 235 244 255 245 239 237 241 237 241 249 253 255 249 236 235 227 229 342 286 306